Estación de Los Angeles
Ultimos registro cada 15 minutos 61
| N° | Estación | Fecha / Hora | Temperatura | Humedad | Lluvia | Velocidad | Dirección | Radiación | Presion |
| 61 | Los Angeles | 09-05-2026 15:00 | 15,5 | 51 | 0 | 3 | 149 | 503,1 | 1010,2 |
| 60 | Los Angeles | 09-05-2026 14:45 | 15,7 | 51 | 0 | 3 | 140 | 536,9 | 1010,5 |
| 59 | Los Angeles | 09-05-2026 14:30 | 15,7 | 51 | 0 | 2,7 | 154 | 564,4 | 1010,8 |
| 58 | Los Angeles | 09-05-2026 14:15 | 15,6 | 51 | 0 | 2,3 | 142 | 590,6 | 1010,9 |
| 57 | Los Angeles | 09-05-2026 14:00 | 15,1 | 50 | 0 | 3 | 146 | 614,4 | 1011 |
| 56 | Los Angeles | 09-05-2026 13:45 | 15,3 | 49,6 | 0 | 2,3 | 149 | 633,1 | 1011,2 |
| 55 | Los Angeles | 09-05-2026 13:30 | 14,6 | 49,9 | 0 | 3 | 136 | 646,9 | 1011,6 |
| 54 | Los Angeles | 09-05-2026 13:15 | 14,7 | 49,6 | 0 | 3 | 146 | 649,4 | 1012 |
| 53 | Los Angeles | 09-05-2026 13:00 | 14,7 | 47,8 | 0 | 2,3 | 145 | 668,1 | 1012,2 |
| 52 | Los Angeles | 09-05-2026 12:45 | 14,2 | 49,5 | 0 | 2,3 | 145 | 663,1 | 1012,4 |
| 51 | Los Angeles | 09-05-2026 12:30 | 14,2 | 51,3 | 0 | 2,3 | 156 | 656,9 | 1012,6 |
| 50 | Los Angeles | 09-05-2026 12:15 | 13,9 | 51 | 0 | 2,3 | 145 | 650,6 | 1012,8 |
| 49 | Los Angeles | 09-05-2026 12:00 | 13,4 | 50,9 | 0 | 2,7 | 160 | 640,6 | 1013 |
| 48 | Los Angeles | 09-05-2026 11:45 | 12,8 | 53 | 0 | 2,7 | 142 | 625,6 | 1013,1 |
| 47 | Los Angeles | 09-05-2026 11:30 | 12,8 | 52,2 | 0 | 3 | 153 | 608,1 | 1013,2 |
| 46 | Los Angeles | 09-05-2026 11:15 | 12,9 | 52,6 | 0 | 2,7 | 150 | 584,4 | 1013,2 |
| 45 | Los Angeles | 09-05-2026 11:00 | 12,3 | 54,6 | 0 | 2,3 | 149 | 556,9 | 1013,5 |
| 44 | Los Angeles | 09-05-2026 10:45 | 12,2 | 57,3 | 0 | 2,3 | 153 | 529,4 | 1013,3 |
| 43 | Los Angeles | 09-05-2026 10:30 | 11,6 | 58 | 0 | 2,3 | 156 | 501,9 | 1013,5 |
| 42 | Los Angeles | 09-05-2026 10:15 | 11,4 | 58,6 | 0 | 2 | 143 | 463,1 | 1013,5 |
| 41 | Los Angeles | 09-05-2026 10:00 | 11,3 | 58,8 | 0 | 2 | 146 | 421,9 | 1013,6 |
| 40 | Los Angeles | 09-05-2026 09:45 | 10,7 | 60,9 | 0 | 2 | 139 | 380,6 | 1013,8 |
| 39 | Los Angeles | 09-05-2026 09:30 | 10,1 | 62,6 | 0 | 1,7 | 133 | 335,6 | 1013,9 |
| 38 | Los Angeles | 09-05-2026 09:15 | 9,8 | 63,7 | 0 | 2 | 131 | 289,4 | 1013,7 |
| 37 | Los Angeles | 09-05-2026 09:00 | 9,4 | 63,6 | 0 | 2 | 140 | 241,9 | 1013,7 |
| 36 | Los Angeles | 09-05-2026 08:45 | 9,1 | 65,3 | 0 | 1,7 | 140 | 194,4 | 1013,7 |
| 35 | Los Angeles | 09-05-2026 08:30 | 8,5 | 65,8 | 0 | 1,7 | 129 | 19,4 | 1013,6 |
| 34 | Los Angeles | 09-05-2026 08:15 | 8 | 68,4 | 0 | 1,7 | 132 | 18,1 | 1013,3 |
| 33 | Los Angeles | 09-05-2026 08:00 | 7,2 | 69,7 | 0 | 1,7 | 133 | 45,6 | 1013,2 |
| 32 | Los Angeles | 09-05-2026 07:45 | 7 | 70,7 | 0 | 1,7 | 131 | 6,9 | 1013,2 |
| 31 | Los Angeles | 09-05-2026 07:30 | 6,8 | 71,8 | 0 | 1,7 | 132 | 1,9 | 1013,2 |
| 30 | Los Angeles | 09-05-2026 07:15 | 6,7 | 72,8 | 0 | 2 | 129 | 0,6 | 1013,1 |
| 29 | Los Angeles | 09-05-2026 07:00 | 6,6 | 73,7 | 0 | 1,7 | 132 | 0,6 | 1013,2 |
| 28 | Los Angeles | 09-05-2026 06:45 | 6,6 | 74,3 | 0 | 2 | 128 | 0,6 | 1013,2 |
| 27 | Los Angeles | 09-05-2026 06:30 | 6,8 | 73,6 | 0 | 2 | 138 | 0,6 | 1013,2 |
| 26 | Los Angeles | 09-05-2026 06:15 | 6,7 | 74,9 | 0 | 2 | 138 | 0,6 | 1013,3 |
| 25 | Los Angeles | 09-05-2026 06:00 | 6,6 | 76,1 | 0 | 1,3 | 129 | 0,6 | 1013,4 |
| 24 | Los Angeles | 09-05-2026 05:45 | 6,7 | 76,1 | 0 | 1,7 | 132 | 0,6 | 1013,5 |
| 23 | Los Angeles | 09-05-2026 05:30 | 6,7 | 76,3 | 0 | 1,7 | 139 | 0,6 | 1013,6 |
| 22 | Los Angeles | 09-05-2026 05:15 | 6,8 | 76,5 | 0 | 1,7 | 131 | 0,6 | 1013,7 |
| 21 | Los Angeles | 09-05-2026 05:00 | 7,1 | 75,6 | 0 | 2 | 142 | 0,6 | 1013,8 |
| 20 | Los Angeles | 09-05-2026 04:45 | 7,2 | 75,7 | 0 | 1,7 | 142 | 0,6 | 1013,7 |
| 19 | Los Angeles | 09-05-2026 04:30 | 7,2 | 76,2 | 0 | 1,7 | 138 | 0,6 | 1013,7 |
| 18 | Los Angeles | 09-05-2026 04:15 | 7,3 | 76,5 | 0 | 1,7 | 142 | 0,6 | 1013,7 |
| 17 | Los Angeles | 09-05-2026 04:00 | 7,3 | 77,3 | 0 | 1,7 | 135 | 0,6 | 1013,7 |
| 16 | Los Angeles | 09-05-2026 03:45 | 7,2 | 78,5 | 0 | 1,3 | 143 | 0,6 | 1013,8 |
| 15 | Los Angeles | 09-05-2026 03:30 | 7,1 | 80,2 | 0 | 1,3 | 135 | 0,6 | 1013,9 |
| 14 | Los Angeles | 09-05-2026 03:15 | 7,4 | 80,1 | 0 | 1,3 | 136 | 0,6 | 1014,1 |
| 13 | Los Angeles | 09-05-2026 03:00 | 7,3 | 80,9 | 0 | 1,3 | 133 | 0,6 | 1014,1 |
| 12 | Los Angeles | 09-05-2026 02:45 | 7,7 | 80,4 | 0 | 1,7 | 139 | 0,6 | 1014,2 |
| 11 | Los Angeles | 09-05-2026 02:30 | 7,7 | 80,8 | 0 | 1,7 | 129 | 0,6 | 1014,2 |
| 10 | Los Angeles | 09-05-2026 02:15 | 7,7 | 82 | 0 | 1,7 | 145 | 0,6 | 1014,2 |
| 9 | Los Angeles | 09-05-2026 02:00 | 7,8 | 82,9 | 0 | 2 | 152 | 0,6 | 1014,3 |
| 8 | Los Angeles | 09-05-2026 01:45 | 7,9 | 84,1 | 0 | 2 | 135 | 0,6 | 1014,3 |
| 7 | Los Angeles | 09-05-2026 01:30 | 7,8 | 84,4 | 0 | 1,7 | 135 | 0,6 | 1014,4 |
| 6 | Los Angeles | 09-05-2026 01:15 | 8,1 | 84,6 | 0 | 2 | 146 | 0,6 | 1014,3 |
| 5 | Los Angeles | 09-05-2026 01:00 | 8,2 | 85,2 | 0 | 1,7 | 139 | 0,6 | 1014,4 |
| 4 | Los Angeles | 09-05-2026 00:45 | 8,4 | 85,3 | 0 | 2 | 138 | 0,6 | 1014,2 |
| 3 | Los Angeles | 09-05-2026 00:30 | 8,5 | 85,8 | 0 | 1,7 | 138 | 0,6 | 1014 |
| 2 | Los Angeles | 09-05-2026 00:15 | 8,6 | 85,8 | 0 | 1,7 | 143 | 0,6 | 1014 |
| 1 | Los Angeles | 09-05-2026 00:00 | 8,7 | 86,2 | 0 | 1,7 | 142 | 0,6 | 1014,1 |